AirNav   ATP
 
 316 users online  

39R Flyin' B Airport
Houston, Texas, USA

GOING TO HOUSTON?


FAA INFORMATION EFFECTIVE 08 NOVEMBER 2018

Location

FAA Identifier: 39R
Lat/Long: 29-32-15.4000N / 095-25-25.1000W
29-32.256667N / 095-25.418333W
29.5376111 / -95.4236389
(estimated)
Elevation: 73 ft. / 22 m (estimated)
Variation: 06E (1985)
From city: 15 miles S of HOUSTON, TX
Time zone: UTC -6 (UTC -5 during Daylight Saving Time)
Zip code: 77583

Airport Operations

Airport use: Open to the public
Control tower: no
ARTCC: HOUSTON CENTER
FSS: MONTGOMERY COUNTY FLIGHT SERVICE STATION
NOTAMs facility: CXO (NOTAM-D service available)
Attendance: UNATNDD
Wind indicator: yes
Segmented circle: no

Airport Communications

CTAF: 122.9
WX AWOS-3 at AXH (3 nm SW): 123.625 (281-431-6572)
WX ASOS at LVJ (10 nm E): 118.525 (281-992-1853)
WX ASOS at HOU (10 nm NE): PHONE 713-847-1462
WX ASOS at SGR (13 nm NW): 118.125 (281-242-7605)

Nearby radio navigation aids

VOR radial/distance  VOR name  Freq  Var
HUBr222/10.4HOBBY VOR/DME117.1005E
IAHr184/25.5HUMBLE VORTAC116.6005E
VUHr293/33.2SCHOLES VOR/DME113.0006E
MHFr262/35.3TRINITY VOR/DME113.6007E

 
NDB name  Hdg/Dist  Freq  Var  ID
NIXIN197/29.432605EBVP -... ...- .--.
GALVESTON281/37.020608EGLS --. .-.. ...

Airport Services

Runway Information

Runway 17/35

Dimensions: 2100 x 75 ft. / 640 x 23 m
Surface: turf, in fair condition
RY SFC HAS ROUGH AREAS & UNEVEN WITH TIRE RUTS.
RUNWAY 17  RUNWAY 35
Latitude: 29-32.430290N29-32.083907N
Longitude: 095-25.424195W095-25.411467W
Elevation: 68.0 ft.73.0 ft.
Traffic pattern: leftleft
Runway heading: 172 magnetic, 178 true352 magnetic, 358 true
Obstructions: 30 ft. pline, 20 ft. from runway5 ft. hill, 90 ft. right of centerline

Airport Ownership and Management from official FAA records

Ownership: Privately-owned
Owner: SMITH PARK 21
4610 CURRY RD
MANVEL, TX 77578
Phone 713-443-1850
ARPT ADDRESS 1422 CO RD 59, ROSHARON, TX.
Manager: DAVID PARKER
4610 CURRY RD
HOUSTON, TX 77578
Phone 713-443-1850

Additional Remarks

BAYOU AT SOUTH END OF RWY.
GND DROPS OFF SHARPLY AT END OF RY 17 20 FT FM THLD.
FOR CD CTC HOUSTON APCH AT 281-443-5844 TO CNL IFR CALL 281-443-5888.

Instrument Procedures

There are no published instrument procedures at 39R.

Some nearby airports with instrument procedures:

KAXH - Houston Southwest Airport (3 nm SW)
KLVJ - Pearland Regional Airport (10 nm E)
KHOU - William P Hobby Airport (10 nm NE)
KSGR - Sugar Land Regional Airport (13 nm NW)
KEFD - Ellington Airport (14 nm E)
 
Loc | Ops | Rwys | IFR | FBO | Links
Com | Nav | Svcs | Stats | Notes


 
Area around 39R (Flyin' B Airport)
 
Road maps at: MapQuest Bing Google
 
Aerial photo
No photo
 
Sectional chart

 
Airport distance calculator
Flying to Flyin' B Airport? Find the distance to fly.

From to 39R

Sunrise and sunset
Times for 18-Nov-2018
 Local
(UTC-6)
 Zulu
(UTC)
Morning civil twilight06:2412:24
Sunrise06:4912:49
Sunset17:2423:24
Evening civil twilight17:5023:50

Current date and time
Zulu (UTC)  18-Nov-2018 08:14:32
Local (UTC-6)  18-Nov-2018 02:14:32
 
METAR
KAXH 
3nm SW 
180755Z AUTO 00000KT 10SM BKN050 BKN060 14/14 A3012 RMK AO2 T01410137
KLVJ 
9nm E 
180753Z AUTO 07003KT 8SM BKN055 15/15 A3013 RMK AO2 SLP201 T01500150
KHOU 
9nm NE 
180753Z 08004KT 10SM BKN058 BKN080 16/14 A3011 RMK AO2 SLP202 T01610144
KSGR 
13nm W 
180753Z AUTO 10003KT 10SM BKN050 OVC060 17/14 A3011 RMK AO2 SLP197 T01720139
KEFD 
14nm E 
180750Z 05002KT 10SM BKN055 BKN070 15/13 A3011
TAF
KHOU 
9nm NE 
180534Z 1806/1906 08006KT P6SM SCT060 BKN250 FM180900 VRB04KT P6SM FEW025 BKN035 FM181200 08005KT P6SM VCSH SCT025 BKN035 FM181500 10005KT P6SM VCSH FEW015 BKN035 PROB30 1816/1819 35007KT 4SM SHRA BKN015 OVC025 FM181900 35008KT P6SM -RA OVC015 FM190200 01011KT 5SM -RA BR OVC010
KSGR 
13nm W 
180534Z 1806/1906 11006KT P6SM SCT050 OVC070 FM181200 VRB04KT P6SM VCSH SCT025 OVC035 FM181500 10005KT P6SM VCSH FEW015 BKN035 PROB30 1816/1819 35007KT 4SM SHRA BKN015 OVC025 FM181900 35008KT P6SM -RA OVC015 FM190200 02008KT 5SM -RA BR OVC010
KEFD 
14nm E 
180400Z 1804/1910 11006KT 9999 SCT025 BKN050 QNH3010INS BECMG 1809/1810 09006KT 8000 -SHRA SCT020 BKN040 QNH3008INS BECMG 1820/1821 05006KT 6000 -SHRA BKN020 OVC040 QNH3012INS TX21/1820Z TN16/1804Z
NOTAMs
Click for the latest NOTAMs
NOTAMs are issued by the DoD/FAA and will open in a separate window not controlled by AirNav.

 

 
 

Would you like to see your business listed on this page?

 If your business provides an interesting product or service to pilots, flight crews, aircraft, or users of the Flyin' B Airport, you should consider listing it here.  To start the listing process, click on the button below
 
Add a business
 

Other Pages about Flyin' B Airport

Update a link
 
Copyright © AirNav, LLC. All rights reserved. Privacy Policy  Contact